TimeEST,TemperatureF,Dew PointF,Humidity,Sea Level PressureIn,VisibilityMPH,Wind Direction,Wind SpeedMPH,Gust SpeedMPH,PrecipitationIn,Events,Conditions,WindDirDegrees,DateUTC
12:15 AM,12.9,6.4,75,29.99,10.0,NNW,4.6,-,N/A,,Overcast,340,2014-01-29 05:15:00
12:35 AM,12.7,6.3,75,29.99,10.0,Calm,Calm,-,N/A,Snow,Light Snow,0,2014-01-29 05:35:00
1:15 AM,12.0,4.6,72,29.98,7.0,Calm,Calm,-,N/A,Snow,Light Snow,0,2014-01-29 06:15:00
1:35 AM,11.7,4.5,73,29.99,7.0,West,6.9,16.1,N/A,Snow,Light Snow,270,2014-01-29 06:35:00
1:55 AM,11.3,4.1,73,29.99,5.0,WNW,4.6,-,N/A,Snow,Light Snow,300,2014-01-29 06:55:00
2:15 AM,10.9,3.9,73,29.97,7.0,WNW,6.9,17.3,N/A,Snow,Light Snow,300,2014-01-29 07:15:00
2:35 AM,10.4,3.7,74,29.98,10.0,WNW,9.2,17.3,N/A,Snow,Light Snow,290,2014-01-29 07:35:00
2:55 AM,10.2,3.4,74,29.98,7.0,NW,4.6,-,N/A,Snow,Light Snow,310,2014-01-29 07:55:00
3:15 AM,10.0,2.8,73,29.98,7.0,NNW,3.5,-,N/A,Snow,Light Snow,340,2014-01-29 08:15:00
3:35 AM,9.5,2.3,73,29.97,7.0,WNW,9.2,19.6,N/A,Snow,Light Snow,300,2014-01-29 08:35:00
3:55 AM,9.5,1.4,70,29.97,7.0,WNW,10.4,18.4,N/A,Snow,Light Snow,300,2014-01-29 08:55:00
4:15 AM,9.7,0.5,66,29.98,10.0,NW,12.7,26.5,N/A,Snow,Light Snow,310,2014-01-29 09:15:00
4:35 AM,9.5,-0.4,64,29.97,10.0,WNW,10.4,21.9,N/A,,Clear,290,2014-01-29 09:35:00
4:55 AM,9.5,-1.8,60,29.98,10.0,NW,11.5,19.6,N/A,,Clear,320,2014-01-29 09:55:00
5:15 AM,8.8,-2.4,61,29.98,10.0,North,6.9,-,N/A,,Clear,10,2014-01-29 10:15:00
5:35 AM,8.4,-5.4,53,29.98,10.0,NW,18.4,25.3,N/A,,Clear,310,2014-01-29 10:35:00
5:55 AM,8.4,-8.0,47,29.99,7.0,WNW,6.9,27.6,N/A,,Clear,300,2014-01-29 10:55:00
6:15 AM,7.5,-9.2,46,30.00,10.0,NW,8.1,-,N/A,,Clear,310,2014-01-29 11:15:00
6:35 AM,6.8,-15.3,36,30.01,10.0,NW,15.0,21.9,N/A,,Clear,320,2014-01-29 11:35:00
6:55 AM,5.9,-13.5,41,30.02,10.0,WNW,9.2,-,N/A,,Clear,300,2014-01-29 11:55:00
7:15 AM,5.0,-12.3,45,30.04,10.0,NW,10.4,-,N/A,,Clear,320,2014-01-29 12:15:00
7:35 AM,4.1,-10.5,51,30.04,10.0,NW,5.8,-,N/A,,Clear,310,2014-01-29 12:35:00
7:55 AM,3.2,-10.3,54,30.05,10.0,Calm,Calm,-,N/A,,Clear,0,2014-01-29 12:55:00
8:15 AM,3.0,-10.8,53,30.05,10.0,NNW,3.5,-,N/A,,Clear,330,2014-01-29 13:15:00
8:35 AM,4.1,-12.3,47,30.05,10.0,NW,6.9,-,N/A,,Clear,320,2014-01-29 13:35:00
8:55 AM,5.7,-19.3,31,30.05,10.0,NW,11.5,16.1,N/A,,Clear,310,2014-01-29 13:55:00
9:15 AM,6.3,-18.0,32,30.06,10.0,NNW,5.8,-,N/A,,Clear,330,2014-01-29 14:15:00
9:35 AM,6.8,-17.3,32,30.06,10.0,NW,12.7,17.3,N/A,,Clear,320,2014-01-29 14:35:00
9:55 AM,7.9,-17.5,31,30.07,10.0,NW,9.2,17.3,N/A,,Clear,320,2014-01-29 14:55:00
10:15 AM,9.3,-13.2,36,30.09,10.0,West,6.9,-,N/A,,Clear,270,2014-01-29 15:15:00
10:35 AM,10.0,-12.8,35,30.10,10.0,West,9.2,-,N/A,,Clear,260,2014-01-29 15:35:00
10:55 AM,10.9,-15.0,30,30.10,10.0,Calm,Calm,-,N/A,,Clear,0,2014-01-29 15:55:00
11:15 AM,12.4,-15.5,28,30.10,10.0,NW,4.6,-,N/A,,Clear,310,2014-01-29 16:15:00
11:35 AM,13.6,-14.3,28,30.11,10.0,North,5.8,-,N/A,,Clear,350,2014-01-29 16:35:00
11:55 AM,14.5,-11.7,30,30.11,10.0,Calm,Calm,-,N/A,,Clear,0,2014-01-29 16:55:00
12:15 PM,15.8,-13.9,26,30.10,10.0,South,3.5,-,N/A,,Clear,190,2014-01-29 17:15:00
12:35 PM,16.7,-13.4,26,30.10,10.0,WNW,4.6,-,N/A,,Clear,290,2014-01-29 17:35:00
12:55 PM,17.4,-12.8,26,30.09,10.0,NW,6.9,-,N/A,,Clear,320,2014-01-29 17:55:00
1:15 PM,18.0,-13.4,24,30.10,10.0,NW,6.9,-,N/A,,Clear,320,2014-01-29 18:15:00
1:35 PM,18.5,-11.6,26,30.10,10.0,NNW,11.5,16.1,N/A,,Clear,330,2014-01-29 18:35:00
1:55 PM,18.5,-12.1,25,30.09,10.0,NNW,12.7,17.3,N/A,,Clear,330,2014-01-29 18:55:00
2:15 PM,19.0,-11.6,25,30.09,10.0,NW,9.2,17.3,N/A,,Clear,320,2014-01-29 19:15:00
2:35 PM,19.4,-11.4,25,30.08,10.0,NNW,11.5,-,N/A,,Clear,330,2014-01-29 19:35:00
2:55 PM,19.6,-13.5,22,30.08,10.0,NW,11.5,17.3,N/A,,Clear,320,2014-01-29 19:55:00
3:15 PM,20.3,-12.3,23,30.09,10.0,NW,10.4,-,N/A,,Clear,320,2014-01-29 20:15:00
3:35 PM,20.3,-11.9,24,30.09,10.0,NW,6.9,-,N/A,,Clear,320,2014-01-29 20:35:00
3:55 PM,20.3,-12.8,23,30.10,10.0,NW,6.9,-,N/A,,Clear,320,2014-01-29 20:55:00
4:15 PM,20.1,-12.5,23,30.11,10.0,West,11.5,-,N/A,,Clear,280,2014-01-29 21:15:00
4:35 PM,19.4,-12.1,24,30.11,10.0,West,8.1,-,N/A,,Clear,280,2014-01-29 21:35:00
4:55 PM,19.0,-13.0,24,30.11,10.0,WNW,4.6,-,N/A,,Clear,300,2014-01-29 21:55:00
5:15 PM,18.0,-13.5,24,30.11,10.0,Calm,Calm,-,N/A,,Clear,0,2014-01-29 22:15:00
5:35 PM,16.9,-12.8,26,30.11,10.0,Calm,Calm,-,N/A,,Clear,0,2014-01-29 22:35:00
5:55 PM,16.2,-12.3,28,30.11,10.0,Calm,Calm,-,N/A,,Clear,0,2014-01-29 22:55:00
6:15 PM,16.5,-10.5,30,30.12,10.0,WSW,3.5,-,N/A,,Clear,250,2014-01-29 23:15:00
6:35 PM,16.0,-9.2,32,30.13,10.0,West,8.1,-,N/A,,Clear,270,2014-01-29 23:35:00
6:55 PM,15.4,-7.6,36,30.13,10.0,West,9.2,-,N/A,,Clear,280,2014-01-29 23:55:00
7:15 PM,14.7,-6.2,39,30.14,10.0,WNW,4.6,-,N/A,,Clear,290,2014-01-30 00:15:00
7:35 PM,14.0,-7.6,38,30.15,10.0,WNW,4.6,-,N/A,,Clear,290,2014-01-30 00:35:00
7:55 PM,13.6,-6.7,40,30.14,10.0,WNW,5.8,-,N/A,,Clear,300,2014-01-30 00:55:00
8:15 PM,12.9,-7.4,40,30.14,10.0,NW,3.5,-,N/A,,Clear,320,2014-01-30 01:15:00
8:35 PM,12.0,-6.2,44,30.14,10.0,Calm,Calm,-,N/A,,Clear,0,2014-01-30 01:35:00
8:55 PM,11.8,-6.0,45,30.14,10.0,Calm,Calm,-,N/A,,Clear,0,2014-01-30 01:55:00
9:15 PM,11.5,-5.8,46,30.15,10.0,Calm,Calm,-,N/A,,Clear,0,2014-01-30 02:15:00
9:35 PM,10.8,-5.6,48,30.14,10.0,Calm,Calm,-,N/A,,Clear,0,2014-01-30 02:35:00
9:55 PM,12.0,-8.1,40,30.15,10.0,West,4.6,-,N/A,,Clear,270,2014-01-30 02:55:00
10:15 PM,10.4,-6.3,47,30.15,10.0,Calm,Calm,-,N/A,,Clear,0,2014-01-30 03:15:00
10:35 PM,10.0,-6.7,47,30.15,10.0,Calm,Calm,-,N/A,,Clear,0,2014-01-30 03:35:00
10:55 PM,9.7,-8.0,45,30.16,10.0,Calm,Calm,-,N/A,,Clear,0,2014-01-30 03:55:00
11:15 PM,8.4,-5.8,52,30.16,10.0,Calm,Calm,-,N/A,,Clear,0,2014-01-30 04:15:00
11:35 PM,8.6,-5.6,53,30.16,10.0,Calm,Calm,-,N/A,,Clear,0,2014-01-30 04:35:00
11:55 PM,7.7,-6.0,54,30.15,10.0,Calm,Calm,-,N/A,,Clear,0,2014-01-30 04:55:00